GFSCGP_prec_cloud_336.txt.gz
Cloud_Cover
6 100 100 97 99 100 100 60 5 64 100 100 100 100 100 100 100 100 100 100 99 26 97 31 13 12 65 100 100 100 100 100 100 100 88 23 5 6 89 31 99 82 76 35
100 100 81 5 74 62 100 100 90 10 76 100 100 100 100 100 100 100 100 100 100 72 99 100 100 100 100 100 100 100 100 100 100 100 100 100 82 89 87 50 56 51 93 19
100 35 6 29 100 100 65 92 100 100 100 100 100 54 100 100 99 100 100 88 100 44 100 95 100 98 100 100 100 100 100 100 100 100 100 100 100 98 100 56 94 74 97 42
100 57 100 100 100 97 100 5 27 100 100 100 87 44 100 100 100 100 100 100 100 99 100 100 100 100 97 97 100 100 100 100 100 100 100 100 100 100 99 98 100 94 45 96
86 100 98 100 49 24 49 10 72 100 100 100 100 100 4 78 96 100 100 100 100 100 100 100 100 100 100 100 100 100 100 100 96 100 100 100 100 100 100 100 100 99 63 88
5 25 100 100 72 100 3 100 100 100 100 100 94 100 87 78 100 100 100 100 100 100 100 100 100 100 100 100 100 42 100 100 100 100 96 97 100 100 100 100 100 100 97 90
8 44 95 100 100 100 100 100 100 100 100 57 5 99 41 94 100 100 100 100 100 100 100 100 100 100 100 100 82 96 97 100 100 100 100 100 100 100 100 100 100 100 100 100
100 9 11 6 100 95 100 99 100 77 100 10 1 84 5 100 100 100 100 100 100 100 100 100 100 100 100 100 100 100 100 100 100 100 100 100 100 100 100 100 100 100 100 100
100 81 14 1 100 100 100 100 72 100 100 68 18 6 0 41 99 100 100 100 100 100 100 100 100 100 100 100 100 100 100 100 94 100 100 100 100 100 100 100 100 100 100 100
100 99 100 98 30 71 100 100 100 100 100 100 92 11 5 0 5 100 100 100 100 100 100 100 100 100 100 100 100 100 100 100 100 100 100 100 100 100 100 100 100 100 100 100
100 100 100 100 82 18 96 100 99 98 100 100 100 92 5 0 4 5 100 100 100 100 100 100 100 100 100 100 100 100 100 100 100 100 100 100 100 100 100 100 100 100 100 100
100 100 100 100 100 75 60 9 100 100 22 100 98 2 40 52 5 5 5 9 100 100 100 100 100 100 100 100 100 100 100 100 100 100 100 100 100 100 100 100 100 100 100 100
100 100 100 100 100 100 100 84 20 59 98 33 50 6 5 65 5 5 16 5 11 85 100 100 100 100 100 100 100 100 100 100 100 100 100 100 100 100 100 100 100 100 100 100
100 100 100 100 100 100 100 100 100 100 100 20 41 1 3 5 17 30 84 98 93 99 64 54 75 100 100 100 100 100 100 100 100 100 100 100 100 100 100 100 100 100 100 100
100 100 100 100 100 100 100 100 100 100 67 100 67 77 95 67 91 60 78 99 100 100 100 100 100 100 100 100 100 100 100 100 100 100 100 100 100 100 100 100 100 100 100 100
100 100 100 100 100 100 100 100 100 100 100 83 100 99 100 99 100 100 100 92 100 100 100 100 100 99 100 100 100 100 100 100 100 100 100 100 100 100 100 100 100 100 100 100
100 100 100 100 100 79 100 100 100 100 100 100 84 91 92 71 100 100 98 100 100 100 100 83 99 100 100 100 100 100 100 100 100 100 100 100 100 100 100 100 100 100 100 100
100 100 100 100 100 100 100 100 100 100 100 100 100 100 96 100 100 100 99 98 100 93 83 100 100 100 100 100 100 100 100 100 100 100 100 100 100 100 100 100 100 100 100 100
100 100 58 95 100 100 100 100 100 100 100 100 100 100 100 100 100 100 100 100 100 97 39 81 99 100 100 100 100 100 100 100 100 100 100 100 100 100 100 100 100 100 100 100
100 100 100 100 100 100 100 100 100 100 100 100 100 100 100 100 100 100 100 100 98 100 87 100 100 100 100 100 100 100 100 100 100 100 100 100 100 100 100 100 100 100 100 100
100 100 100 100 100 100 100 100 100 100 100 100 100 100 100 100 100 100 100 100 100 100 100 100 100 100 100 100 100 100 100 100 100 100 100 100 100 100 100 100 100 100 100 100
100 100 100 100 100 100 100 100 100 100 100 100 100 100 100 100 100 100 100 100 100 100 100 100 100 100 100 100 100 100 100 100 100 100 100 100 100 100 100 100 100 100 100 100
100 100 100 100 100 100 100 100 100 100 100 100 100 100 100 100 100 100 100 100 100 100 100 100 100 100 100 100 100 100 100 100 100 100 100 100 100 100 100 100 100 100 100 100
100 100 100 100 100 100 100 100 100 100 100 100 100 100 95 74 86 90 100 100 100 100 100 100 100 100 100 100 100 100 100 100 100 100 100 100 100 100 100 100 100 100 100 100
100 100 100 100 100 100 100 100 100 100 100 100 100 100 100 100 100 98 100 100 100 100 100 100 100 100 100 100 100 100 100 100 100 100 100 100 100 100 100 100 100 100 100 100
100 100 100 100 100 100 100 100 100 100 100 100 100 100 100 100 100 100 100 100 100 100 100 100 100 100 100 100 100 100 100 100 100 100 100 100 100 100 100 100 100 100 100 100

GFSCGP_prec_cloud_339.txt.gz
Cloud_Cover
28 99 100 90 18 90 100 100 100 5 5 31 5 33 100 100 100 100 100 100 100 100 100 100 100 100 100 70 99 96 93 100 100 100 100 100 100 100 100 100 84 100 94 11
18 86 12 83 83 73 94 98 84 100 100 26 3 1 99 99 100 100 100 100 100 100 100 100 100 100 100 100 100 41 56 100 100 100 100 100 100 100 100 100 100 100 96 100
46 4 49 92 64 100 100 100 99 94 100 100 57 6 4 86 86 100 100 100 100 100 100 100 100 100 100 100 100 100 100 42 6 100 100 100 100 100 100 100 100 100 100 100
98 0 100 100 100 62 100 9 23 100 100 99 100 65 100 76 96 100 100 100 100 100 100 100 100 100 100 100 100 100 100 100 97 100 100 100 100 100 100 100 100 100 100 100
9 2 4 100 32 96 22 4 5 36 100 100 100 100 75 41 5 80 100 100 100 100 100 100 100 100 100 100 100 100 100 100 92 100 100 100 100 100 100 100 100 100 100 100
68 30 63 96 78 99 30 100 100 100 100 100 38 70 4 43 40 100 100 100 100 100 100 100 100 100 100 100 100 100 100 100 100 100 100 100 100 100 100 100 100 100 100 100
92 70 2 100 100 100 100 100 100 100 100 99 0 66 8 15 100 100 100 100 100 100 100 100 100 100 100 100 100 100 100 100 100 100 100 100 100 97 100 100 100 100 100 100
100 88 23 100 100 90 98 100 81 100 100 47 2 48 6 0 83 100 100 100 100 100 100 100 100 100 100 100 100 100 100 100 100 100 100 100 100 100 100 100 100 100 100 100
100 100 97 76 100 100 100 100 100 100 82 34 13 5 0 0 0 57 100 100 100 100 100 100 100 100 100 100 100 100 100 100 100 100 100 100 100 100 100 100 100 100 100 100
100 100 100 94 100 99 100 100 100 100 100 100 59 9 5 3 0 0 9 74 100 100 100 100 100 100 100 100 100 100 100 100 100 100 100 100 100 100 100 100 100 100 100 100
100 100 100 100 89 100 100 100 100 100 100 100 100 83 2 0 0 0 0 2 64 100 100 100 100 100 100 100 100 100 100 100 100 100 100 100 100 100 100 100 100 100 100 100
100 100 100 100 97 79 96 100 100 100 100 100 100 12 46 54 5 5 5 5 6 100 100 100 100 100 100 100 100 100 100 100 100 100 100 100 100 100 100 100 100 100 100 100
100 100 100 100 100 100 100 100 100 100 100 79 46 6 5 44 5 5 48 10 54 62 86 100 100 100 100 100 100 100 100 100 100 100 100 100 100 100 100 100 100 100 100 100
100 100 100 100 100 100 100 100 99 100 93 35 32 7 85 40 87 18 28 28 84 70 91 92 99 100 100 100 100 100 100 100 100 100 100 100 100 100 100 100 100 100 100 100
100 100 100 100 100 100 100 100 97 100 100 100 75 99 100 100 100 98 94 96 100 78 38 73 100 100 100 100 100 100 100 100 100 100 100 100 100 100 100 100 100 100 100 100
100 100 100 94 100 100 100 100 100 100 100 98 100 99 100 100 100 69 62 95 94 100 100 100 100 100 100 100 100 100 100 100 100 100 100 100 100 100 100 100 100 100 100 100
100 95 100 100 100 100 100 100 100 100 100 100 90 99 70 70 96 90 60 98 100 100 100 100 100 100 93 96 99 100 100 100 100 100 100 100 100 100 100 100 100 100 100 100
100 100 100 100 99 98 100 100 100 100 100 100 100 100 100 99 100 100 100 100 100 100 100 100 100 100 100 100 100 100 100 100 100 100 100 100 100 100 100 100 100 100 100 100
100 100 99 89 100 100 100 99 100 100 100 100 100 100 100 100 100 100 100 100 100 100 96 95 95 100 100 100 100 100 100 100 100 100 100 100 100 100 100 100 100 100 100 100
100 100 100 100 100 100 100 100 100 100 100 100 100 100 100 100 100 100 100 100 100 100 100 94 100 100 100 100 100 100 100 100 100 100 100 100 100 100 100 100 100 100 100 100
100 100 100 100 100 100 100 100 100 96 100 100 100 100 100 100 100 100 100 100 100 100 100 100 100 100 100 100 100 100 100 100 100 100 100 100 100 100 100 100 100 100 100 100
100 100 100 100 100 100 100 100 100 99 98 100 100 100 100 100 100 100 100 100 100 100 99 100 100 100 100 100 100 100 100 100 100 100 100 100 100 100 100 100 100 100 100 100
100 100 100 100 100 100 95 100 100 100 100 100 100 100 100 100 47 86 100 100 100 100 100 100 100 100 100 100 100 100 100 100 100 100 100 100 100 100 100 100 100 100 100 100
100 100 100 100 100 100 100 100 100 100 100 98 97 96 54 18 100 80 100 100 100 100 100 100 100 100 100 100 100 100 100 100 100 100 100 100 100 100 100 100 100 100 100 100
100 100 100 100 100 100 100 100 100 100 100 100 87 82 83 98 47 50 97 100 99 100 100 96 100 100 100 100 100 100 100 100 100 100 100 100 100 100 100 100 100 100 100 100
100 100 100 100 100 100 100 100 100 100 100 100 28 91 53 65 66 52 63 72 63 68 100 100 100 100 100 100 100 100 100 100 100 100 100 100 100 100 100 100 100 100 100 100

GFSCGP_prec_cloud_342.txt.gz
Cloud_Cover
1 0 0 9 12 79 79 100 100 100 100 70 0 1 85 100 100 100 100 100 100 100 100 100 100 100 100 100 100 100 100 100 100 100 100 100 100 93 96 99 100 100 100 100
58 48 0 0 79 100 100 100 96 100 100 100 25 2 5 99 80 100 100 100 99 100 93 88 100 100 100 100 100 100 100 100 100 100 98 100 100 70 81 100 100 100 100 100
89 3 3 2 0 100 100 100 12 68 100 100 100 31 5 40 5 8 100 100 76 77 95 100 100 100 100 100 100 100 100 100 100 100 100 100 100 100 100 100 100 100 100 100
86 4 3 5 0 44 100 49 53 79 100 99 100 67 100 78 49 40 18 58 100 100 99 100 100 100 100 100 100 100 100 100 100 100 100 100 100 100 100 100 75 72 100 100
6 5 11 98 12 0 70 7 100 100 100 100 100 100 5 100 100 97 78 100 100 100 100 100 100 100 100 100 100 100 100 100 100 100 100 100 100 100 100 100 74 48 89 100
19 81 93 13 4 4 0 100 100 98 100 100 69 44 1 3 41 100 100 100 100 100 100 100 100 100 100 100 100 100 100 100 100 100 100 100 100 100 100 100 100 70 30 55
97 99 85 99 100 39 41 96 100 100 100 85 0 90 10 0 4 38 100 100 100 100 100 100 100 100 100 100 100 100 100 100 100 100 100 100 100 100 100 100 100 100 63 77
100 83 95 85 93 95 92 99 96 100 100 99 6 100 41 0 0 3 11 99 100 100 100 100 100 100 100 100 100 100 100 100 100 100 100 100 100 100 100 100 100 100 100 100
100 70 94 100 100 61 100 97 100 100 100 100 100 49 0 0 0 0 6 96 100 100 100 100 100 100 100 100 100 100 100 100 100 100 100 100 100 100 100 100 100 100 100 100
95 100 100 99 100 100 100 58 100 100 96 100 76 25 0 2 0 0 0 3 40 100 100 100 100 100 100 100 100 100 100 100 100 100 100 100 100 100 100 100 100 100 100 100
98 100 100 100 100 100 100 100 100 100 99 99 100 55 11 0 4 2 2 2 5 5 99 100 100 100 100 100 100 100 100 100 100 100 100 100 100 100 100 100 100 100 100 100
100 100 93 100 100 100 100 100 100 100 100 100 100 100 93 91 98 100 97 5 5 5 25 100 100 100 100 100 100 100 100 100 100 100 100 100 100 100 100 100 100 100 100 100
100 99 92 100 100 100 100 100 100 100 100 100 100 30 100 100 100 100 100 100 48 25 22 100 100 100 100 100 100 100 100 100 100 100 100 100 100 100 100 100 100 100 100 100
100 100 100 100 100 100 100 100 99 71 100 100 100 98 100 100 71 99 100 100 100 98 92 100 100 100 100 100 100 100 100 100 100 100 100 100 100 100 100 100 100 100 100 100
100 100 100 100 100 100 100 100 100 100 100 100 90 99 100 100 100 100 96 100 74 61 74 96 100 100 100 100 100 100 100 100 100 100 100 100 100 100 100 100 100 100 100 100
100 100 100 100 100 100 100 100 100 99 100 100 100 100 100 100 98 98 77 100 100 100 94 83 79 89 100 96 70 93 100 100 100 100 100 100 100 100 100 100 100 100 100 100
100 100 100 100 100 100 100 100 100 100 100 100 89 100 98 92 64 93 85 96 100 100 99 92 86 88 100 100 100 100 97 100 100 100 100 100 100 100 100 100 100 100 100 100
100 100 100 100 100 100 100 100 100 100 100 100 100 100 100 100 100 100 100 100 92 99 100 100 95 86 100 100 100 100 100 100 100 100 100 100 100 100 100 100 100 100 100 100
100 100 100 100 100 100 100 100 100 100 100 100 100 100 98 100 100 100 100 100 100 100 100 97 100 100 100 100 100 100 100 100 100 100 100 100 100 100 100 100 100 100 100 100
100 100 100 100 100 100 100 100 100 100 100 100 100 100 100 100 100 100 100 100 100 100 100 98 100 100 100 100 100 100 100 100 100 100 100 100 100 100 100 100 100 100 100 100
100 100 100 100 100 100 100 100 100 100 98 100 100 100 100 100 100 100 100 100 100 100 100 100 100 100 100 100 99 100 100 100 100 100 100 100 100 100 100 100 100 100 100 100
100 100 100 100 100 95 89 81 100 100 100 100 100 100 100 100 100 100 100 100 100 100 100 100 100 100 100 100 100 100 100 100 100 100 100 100 100 100 100 100 100 100 100 100
100 100 100 100 100 100 100 100 100 100 100 100 100 100 100 100 100 100 100 100 100 100 100 100 100 100 100 100 100 100 100 100 100 100 100 100 100 100 100 100 100 100 100 100
100 100 100 100 100 100 100 98 100 99 100 100 100 100 100 95 99 100 100 100 100 73 100 100 100 100 100 100 100 100 100 100 100 100 100 100 100 100 100 100 100 100 100 100
100 100 100 100 100 100 100 100 100 100 100 100 100 100 100 40 23 52 30 79 93 16 80 100 99 100 100 100 100 100 100 100 100 100 100 100 100 100 100 100 100 100 100 100
100 100 99 100 100 100 100 100 100 100 100 100 65 69 66 69 40 17 38 51 56 60 81 100 100 100 100 100 100 100 100 100 100 100 100 100 98 100 100 100 100 100 100 100

GFSCGP_prec_cloud_345.txt.gz
Cloud_Cover
0 1 0 0 1 5 100 99 54 7 96 88 3 35 100 100 100 100 100 100 100 100 100 100 100 100 100 73 87 100 100 100 100 100 100 100 100 100 99 8 38 30 7 5
21 40 0 0 0 0 0 98 88 11 41 92 30 5 5 97 100 100 100 100 100 100 100 100 100 100 100 100 100 100 100 100 100 100 100 100 100 100 100 100 98 86 100 99
100 10 0 2 2 3 0 0 65 100 88 66 99 40 5 5 32 99 100 100 100 100 100 100 100 100 100 100 100 100 100 100 100 100 100 100 100 100 100 100 100 100 100 19
93 0 3 5 85 2 52 0 5 100 100 99 47 77 100 66 2 13 94 100 100 100 100 100 100 100 100 100 100 100 100 100 100 100 100 100 100 100 100 100 100 85 43 88
8 3 2 86 9 80 15 0 0 64 100 100 94 100 8 98 100 41 17 28 100 100 100 100 100 100 100 100 100 100 100 100 100 100 100 100 100 100 100 100 100 100 100 100
76 100 33 77 85 100 33 100 77 46 98 100 47 100 3 0 77 100 100 95 100 100 100 100 100 100 100 100 100 100 100 100 100 100 100 100 100 100 100 100 100 100 100 100
100 100 100 100 100 100 100 100 95 89 94 37 0 77 94 5 1 98 100 100 100 100 100 100 100 100 100 100 100 100 100 100 100 100 100 100 100 100 100 100 100 100 100 100
100 100 100 100 100 99 100 100 16 11 5 0 0 4 0 0 0 0 14 100 100 100 100 100 100 100 100 100 100 100 100 100 100 100 100 100 100 100 100 100 100 100 100 100
89 100 100 100 100 100 100 100 15 40 53 81 57 6 0 0 0 0 0 18 88 100 100 100 100 100 100 100 100 100 100 100 100 100 100 100 100 100 100 100 100 100 100 100
100 100 100 100 92 98 100 100 100 100 100 81 100 90 20 20 5 2 4 4 4 4 86 98 100 100 100 100 100 95 100 100 100 100 100 100 100 100 100 100 100 100 100 100
52 100 100 100 100 100 100 100 100 29 100 100 99 100 100 100 94 85 40 8 25 5 6 12 90 100 100 100 100 100 99 100 100 100 100 100 100 100 100 100 100 100 100 100
100 100 100 100 100 100 100 100 100 6 98 100 41 79 100 100 100 100 100 98 53 69 17 100 100 100 100 100 100 100 100 100 97 100 100 100 100 100 100 100 100 100 100 100
100 100 100 100 100 100 100 100 100 100 74 39 91 82 100 100 91 100 100 100 100 100 65 100 100 100 100 100 100 100 100 100 100 100 100 100 100 100 100 100 100 100 100 100
100 97 100 100 100 100 100 100 100 100 100 100 100 100 100 89 99 100 100 72 97 91 67 83 100 100 100 100 100 100 100 100 100 100 100 100 100 100 100 100 100 100 100 100
100 100 100 100 100 100 100 100 100 100 100 100 100 100 100 100 100 100 100 100 91 100 93 89 87 100 100 100 100 100 100 100 100 100 100 100 100 100 100 100 100 100 100 100
100 100 100 100 100 100 100 100 100 100 100 100 100 100 100 100 100 100 100 100 80 100 71 62 87 100 100 99 100 100 77 100 100 100 100 100 100 100 100 100 100 100 100 100
100 100 100 100 100 100 100 100 100 100 100 100 100 100 100 100 99 89 100 98 97 97 86 73 88 95 90 98 81 77 97 100 100 100 100 100 100 100 100 100 100 100 100 100
100 100 100 100 100 100 100 100 100 100 100 100 100 100 100 100 100 100 100 98 93 100 92 84 99 100 100 99 98 94 100 100 100 95 100 100 100 100 100 100 100 100 100 100
100 100 100 100 100 100 100 100 100 100 100 100 100 100 100 100 100 100 100 100 100 100 100 100 100 100 99 98 100 100 100 95 100 100 100 100 100 100 100 100 100 100 100 100
100 100 100 100 100 100 100 100 100 100 100 100 100 100 100 100 100 100 100 100 100 100 100 100 100 100 100 100 100 100 100 100 100 100 100 100 100 100 100 100 100 100 100 100
100 100 100 100 100 100 100 100 100 100 100 100 100 100 100 93 100 100 100 100 100 100 100 100 100 100 100 100 100 100 100 100 100 100 100 100 100 100 100 100 100 100 100 100
100 100 100 100 100 100 100 100 100 99 100 100 100 100 99 100 100 100 100 100 100 100 100 100 100 100 100 100 100 100 100 100 100 100 100 100 100 100 100 100 100 100 100 100
100 100 100 100 100 76 99 97 100 100 100 100 95 100 100 87 100 100 100 100 100 100 100 100 100 100 100 100 100 100 100 100 100 100 100 100 100 100 100 100 100 100 100 100
100 100 100 100 100 100 100 100 100 100 100 100 100 99 96 86 78 55 91 90 56 61 100 100 100 100 100 100 100 100 100 100 100 100 100 100 100 100 100 100 100 100 100 100
93 100 100 100 100 100 100 100 100 100 99 100 100 100 89 72 61 64 100 37 5 8 43 83 100 100 100 100 100 100 100 100 100 100 100 100 100 100 100 100 100 100 100 100
81 48 100 100 100 100 100 100 100 100 100 100 100 88 94 80 30 54 7 5 5 5 5 28 93 96 71 100 100 100 100 100 100 100 100 100 100 100 100 100 100 100 100 100